Location: Lane
(33.5226°N, 79.8788°W)
Time: 19:34:51
(UTC+00:00)

SR - Pass Details

Date: 28 September 2022
Orbit: 577 x 874 km, 66.7° (Epoch: 08 December)

Event Time Altitude Azimuth Distance (km) Brightness Sun altitude
Rises 02:14:45 0° 185° (S) 3,350 - -38.3°
Reaches altitude 10° 02:17:16 10° 178° (S) 2,453 - -38.7°
Maximum altitude 02:22:35 41° 109° (ESE) 1,237 - -39.7°
Drops below altitude 10° 02:28:04 10° 41° (NE) 2,529 - -40.7°
Sets 02:30:41 0° 35° (NE) 3,466 - -41.2°
